{"data":{"norad_id":58829,"epoch":"2026-05-25T03:47:19.251744Z","epoch_age_seconds":51487,"freshness":"FRESH","line1":"1 58829U 24017D   26145.15786171  .00002497  00000+0  96403-4 0  9997","line2":"2 58829  53.1593 209.1464 0001308  83.8780 276.2370 15.30201302131764","mean_motion":15.30201302,"eccentricity":0.0001308,"inclination_deg":53.1593,"raan_deg":209.1464,"arg_perigee_deg":83.878,"mean_anomaly_deg":276.237,"bstar":9.6403e-5,"rev_number":13176,"period_min":94.105265635175,"perigee_km":474.31476394258,"apogee_km":476.10759982696,"semimajor_km":6853.3481818848,"source":"CELESTRAK","updated_at":"2026-05-25T13:38:18.753327Z"}}